QPF
0.00 0.00 0.00 0.00 0.00 0.00 0.00 0.00 0.00 0.00 0.00 0.00 0.00 0.00 0.00 0.00 0.00 0.00 0.00 0.01 0.02 0.02
0.00 0.00 0.00 0.00 0.00 0.00 0.00 0.00 0.00 0.00 0.00 0.00 0.00 0.00 0.00 0.00 0.00 0.01 0.01 0.01 0.01 0.02
0.00 0.00 0.00 0.00 0.00 0.00 0.00 0.00 0.00 0.00 0.00 0.00 0.00 0.00 0.00 0.00 0.00 0.01 0.01 0.01 0.01 0.02
0.00 0.00 0.00 0.00 0.00 0.00 0.00 0.00 0.00 0.00 0.00 0.00 0.00 0.00 0.00 0.00 0.00 0.00 0.00 0.00 0.00 0.01
0.00 0.00 0.00 0.00 0.00 0.00 0.00 0.00 0.00 0.00 0.00 0.00 0.00 0.00 0.00 0.00 0.00 0.00 0.00 0.00 0.00 0.00
0.00 0.00 0.00 0.00 0.00 0.00 0.00 0.00 0.00 0.00 0.00 0.00 0.00 0.00 0.00 0.00 0.00 0.00 0.00 0.00 0.00 0.00
0.00 0.00 0.00 0.00 0.00 0.00 0.00 0.00 0.00 0.00 0.00 0.00 0.00 0.00 0.00 0.00 0.00 0.00 0.00 0.00 0.00 0.00
0.00 0.00 0.00 0.00 0.00 0.00 0.00 0.00 0.00 0.00 0.00 0.00 0.00 0.00 0.00 0.00 0.00 0.00 0.00 0.00 0.00 0.00
0.00 0.00 0.00 0.00 0.00 0.00 0.00 0.00 0.00 0.00 0.00 0.00 0.00 0.00 0.00 0.00 0.00 0.00 0.00 0.00 0.00 0.00
0.00 0.00 0.00 0.00 0.00 0.00 0.00 0.00 0.00 0.00 0.00 0.00 0.00 0.00 0.00 0.00 0.00 0.00 0.00 0.00 0.00 0.00
0.00 0.00 0.00 0.00 0.00 0.00 0.00 0.00 0.00 0.00 0.00 0.00 0.00 0.00 0.00 0.00 0.00 0.00 0.00 0.00 0.00 0.00
0.00 0.00 0.00 0.00 0.00 0.00 0.00 0.00 0.00 0.00 0.00 0.00 0.00 0.00 0.00 0.00 0.00 0.00 0.00 0.00 0.00 0.00
0.00 0.00 0.00 0.00 0.00 0.00 0.00 0.00 0.00 0.00 0.00 0.00 0.00 0.00 0.00 0.00 0.00 0.00 0.00 0.00 0.00 0.00
0.00 0.00 0.00 0.00 0.00 0.00 0.00 0.00 0.00 0.00 0.00 0.00 0.00 0.00 0.00 0.00 0.00 0.00 0.00 0.00 0.00 0.00
MSLP
1014.51 1014.87 1014.36 1013.64 1013.71 1013.30 1012.86 1012.28 1011.72 1010.63 1009.80 1009.11 1008.59 1008.07 1007.79 1007.61 1007.65 1007.78 1007.94 1008.32 1008.61 1008.79
1015.46 1015.05 1014.96 1014.32 1014.04 1013.90 1013.35 1012.81 1012.37 1011.35 1010.87 1010.39 1009.85 1009.33 1008.90 1008.50 1008.17 1007.75 1007.71 1007.89 1008.19 1008.21
1015.92 1015.62 1015.14 1015.01 1014.89 1014.10 1013.59 1013.25 1012.69 1012.40 1011.90 1011.40 1010.88 1010.50 1009.86 1009.59 1009.26 1008.68 1008.53 1008.42 1007.84 1007.67
1016.04 1015.84 1015.48 1015.15 1014.90 1014.66 1014.22 1013.57 1013.27 1012.88 1012.43 1012.05 1011.44 1011.08 1010.66 1010.45 1010.19 1009.72 1009.48 1009.34 1008.78 1008.19
1016.31 1015.97 1015.77 1015.62 1015.21 1014.96 1014.63 1014.28 1013.77 1013.22 1012.95 1012.63 1012.18 1011.67 1011.39 1011.01 1010.81 1010.47 1010.16 1009.63 1009.21 1008.97
1016.64 1016.42 1016.16 1015.82 1015.57 1015.31 1014.97 1014.56 1014.15 1013.78 1013.44 1012.96 1012.66 1012.17 1011.96 1011.66 1011.15 1010.85 1010.45 1010.11 1009.73 1009.44
1016.74 1016.60 1016.37 1016.13 1015.99 1015.71 1015.27 1014.90 1014.62 1014.31 1013.90 1013.68 1013.30 1012.76 1012.57 1012.21 1011.73 1011.31 1010.92 1010.54 1010.31 1009.98
1017.12 1017.00 1016.83 1016.51 1016.23 1015.94 1015.59 1015.24 1014.77 1014.30 1013.97 1013.61 1013.27 1013.31 1013.18 1012.49 1011.88 1011.54 1011.18 1010.74 1010.52 1010.31
1017.28 1017.07 1016.87 1016.66 1016.47 1016.23 1015.85 1015.49 1015.21 1014.86 1014.52 1014.14 1013.83 1013.85 1013.41 1012.88 1012.10 1011.59 1011.25 1010.83 1010.61 1010.35
1017.52 1017.21 1017.01 1016.79 1016.45 1016.13 1015.90 1015.56 1015.13 1014.69 1014.40 1014.07 1013.82 1013.72 1013.45 1013.09 1012.51 1011.89 1011.42 1011.11 1010.71 1010.29
1017.46 1017.27 1017.11 1016.88 1016.52 1016.16 1015.87 1015.37 1015.05 1014.66 1014.40 1014.08 1013.66 1013.51 1013.28 1012.96 1012.40 1011.89 1011.44 1011.12 1010.79 1010.44
1017.90 1017.59 1017.20 1016.81 1016.46 1016.14 1015.68 1015.25 1014.92 1014.63 1014.26 1013.96 1013.58 1013.28 1013.14 1012.85 1012.17 1011.55 1011.00 1010.53 1010.24 1010.07
1017.99 1017.61 1017.16 1016.79 1016.45 1016.14 1015.76 1015.18 1014.78 1014.36 1014.08 1013.64 1013.27 1012.86 1012.54 1012.43 1011.94 1011.17 1010.63 1010.32 1009.93 1009.78
1017.72 1017.48 1017.16 1016.81 1016.41 1016.02 1015.66 1015.24 1014.80 1014.21 1013.61 1013.12 1012.73 1012.44 1012.24 1012.08 1011.73 1011.05 1010.42 1009.88 1009.43 1009.21
Thickness
5528 5526 5534 5541 5540 5543 5547 5553 5561 5573 5581 5587 5591 5598 5602 5602 5601 5601 5601 5598 5597 5596
5518 5523 5525 5530 5532 5532 5538 5544 5549 5559 5565 5569 5573 5577 5583 5587 5589 5593 5593 5591 5588 5588
5513 5515 5519 5520 5521 5527 5531 5534 5541 5543 5548 5552 5556 5559 5565 5566 5569 5574 5575 5576 5580 5582
5510 5510 5512 5514 5515 5516 5520 5526 5529 5532 5536 5539 5544 5546 5550 5551 5553 5556 5557 5557 5562 5567
5506 5508 5508 5507 5510 5511 5513 5514 5517 5522 5524 5527 5530 5535 5535 5538 5539 5542 5543 5547 5551 5553
5502 5502 5502 5504 5504 5505 5507 5509 5511 5514 5516 5519 5520 5524 5524 5525 5529 5531 5535 5538 5542 5543
5499 5499 5499 5499 5499 5500 5501 5502 5502 5503 5505 5505 5506 5510 5510 5512 5515 5518 5521 5524 5525 5528
5494 5493 5492 5492 5492 5492 5493 5493 5495 5497 5497 5498 5499 5496 5495 5500 5503 5504 5506 5509 5510 5511
5488 5487 5486 5485 5484 5483 5484 5484 5483 5483 5483 5483 5483 5480 5482 5484 5489 5491 5491 5492 5493 5494
5479 5478 5477 5476 5475 5474 5472 5472 5472 5471 5470 5469 5468 5465 5464 5465 5467 5470 5472 5472 5474 5475
5472 5469 5466 5463 5462 5461 5459 5458 5456 5455 5453 5451 5451 5448 5446 5446 5447 5449 5449 5449 5449 5450
5456 5453 5452 5450 5448 5446 5443 5441 5439 5436 5434 5432 5430 5427 5423 5422 5426 5427 5429 5429 5428 5426
5438 5436 5435 5432 5429 5425 5422 5420 5418 5415 5410 5409 5407 5404 5402 5399 5401 5403 5404 5401 5401 5399
5426 5421 5417 5412 5409 5405 5401 5399 5394 5393 5390 5389 5387 5384 5378 5375 5373 5375 5377 5377 5375 5373